Onweer radar Meer informatie blitzortung!


Regen radar Meer informatie rain snow radar


Bezoek onze andere website:

Template documentation
and downloads

And another site



15 daagse weersverwachting Bregenz (AT)

  • Overzicht
  • Per uur
  • 15 dagen
  • Extra
  • Vergelijk
  • Kaarten
  • Dagkaart
  • Meer »
  • Info
  • Statistieken
  • Directe link
    Temp 6h Neerslag Wind  
 06:01     20:54    Daglengte: 14:53 Vandaag
02:00
16°
8.2 mm
4
08:00
16°
24.8 mm
3
14:00
17°
22.9 mm
1
20:00
18°
8.7 mm
1
 06:02     20:53    Daglengte: 14:51 Morgen
02:00
15°
4.6 mm
1
08:00
16°
 
1
14:00
19°
 
2
20:00
20°
 
2
 06:03     20:52    Daglengte: 14:49 Dinsdag 03 Aug
02:00
14°
 
3
08:00
16°
20.2 mm
1
14:00
20°
 
1
20:00
18°
31.5 mm
2
Locatie info
Region: Vorarlberg
Latitude: 47.5038°N
Longitude: 9.7437°E
405 masl
Postcode: 6900
Temp/Neerslag /Baro Onweer/Dauwpunt
    Temp Baro 1h Neerslag Dauwpunt Wind UV Bewolking  
 06:01     20:54    Daglengte: 14:53 Vandaag
01:00
17°
1009.6 hPa 4.1 mm
48%
14.7°
2
Windvlaag: -0.8 m/s
86%
02:00
16°
1009.2 hPa 4.0 mm
82%
14.3°
4
Windvlaag: -1.4 m/s
85%
03:00
16°
1009.4 hPa 5.0 mm
82%
14.4°
5
Windvlaag: -2.5 m/s
86%
04:00
16°
1009.7 hPa 5.7 mm
82%
13.6°
2
Windvlaag: -3 m/s
86%
05:00
16°
1009.9 hPa 2.2 mm
82%
13.7°
2
Windvlaag: -2 m/s
86%
06:00
16°
1010.5 hPa 3.7 mm
82%
13.6°
3
Windvlaag: -0.9 m/s
86%
07:00
16°
1010.9 hPa 4.1 mm
82%
13.7°
3
Windvlaag: -1.5 m/s
86%
08:00
16°
1011.5 hPa 4.3 mm
82%
13.7°
3
Windvlaag: -1 m/s
86%
09:00
16°
1012.1 hPa 4.6 mm
82%
14.0°
2
Windvlaag: -2 m/s
86%
10:00
16°
1012.5 hPa 4.4 mm
82%
14.1°
2
Windvlaag: -1.9 m/s
86%
11:00
16°
1012.8 hPa 4.5 mm
82%
14.2°
2
Windvlaag: -1.5 m/s
73%
12:00
16°
1013.0 hPa 4.8 mm
82%
14.1°
1
Windvlaag: -0.5 m/s
63%
13:00
16°
1012.8 hPa 4.6 mm
82%
13.9°
1
Windvlaag: -0.3 m/s
56%
14:00
17°
1012.4 hPa
82%
13.8°
1
Windvlaag: -0.3 m/s
42%
15:00
18°
1012.2 hPa
74%
13.5°
1
Windvlaag: -2.7 m/s
37%
16:00
18°
1012.0 hPa
30%
12.7°
1
Windvlaag: -2.6 m/s
46%
17:00
18°
1012.1 hPa
72%
12.1°
2
Windvlaag: -1.6 m/s
64%
18:00
18°
1012.4 hPa
45%
12.3°
2
Windvlaag: -0.7 m/s
86%
19:00
18°
1012.7 hPa 4.2 mm
82%
12.2°
2
Windvlaag: -1.4 m/s
85%
20:00
18°
1013.2 hPa 4.5 mm
82%
11.2°
1
Windvlaag: -1.2 m/s
84%
21:00
17°
1013.7 hPa 4.6 mm
82%
12.4°
1
Windvlaag: 0.5 m/s
53%
22:00
16°
1014.3 hPa
29%
12.4°
1
Windvlaag: 2.6 m/s
39%
23:00
16°
1014.6 hPa
14%
12.3°
1
Windvlaag: 3 m/s
20%
 06:02     20:53    Daglengte: 14:51 Morgen
00:00
15°
1014.6 hPa
14%
13.0°
2
Windvlaag: 2.1 m/s
36%
01:00
15°
1014.6 hPa
14%
13.5°
1
Windvlaag: 2 m/s
63%
02:00
15°
1014.7 hPa
14%
13.5°
1
Windvlaag: 2.8 m/s
39%
03:00
15°
1014.6 hPa
14%
13.4°
2
Windvlaag: 0.6 m/s
22%
04:00
15°
1014.6 hPa
18%
13.4°
2
Windvlaag: 0.3 m/s
17%
05:00
14°
1014.7 hPa
20%
13.2°
2
Windvlaag: 0.7 m/s
16%
06:00
14°
1015.0 hPa
20%
12.9°
1
Windvlaag: 0.6 m/s
18%
07:00
14°
1015.5 hPa
17%
13.0°
2
Windvlaag: -0.5 m/s
20%
08:00
16°
1015.9 hPa
19%
13.9°
1
Windvlaag: -0.6 m/s
20%
09:00
16°
1016.1 hPa
22%
14.3°
1
Windvlaag: -0.5 m/s
22%
10:00
17°
1016.3 hPa
28%
14.6°
1
Windvlaag: -0.7 m/s
21%
11:00
17°
1016.3 hPa
37%
14.1°
2
Windvlaag: -1.2 m/s
36%
12:00
18°
1016.1 hPa
74%
12.6°
2
Windvlaag: -1.4 m/s
9%
13:00
19°
1015.8 hPa
69%
11.6°
2
Windvlaag: -1.9 m/s
5%
14:00
19°
1015.5 hPa
27%
11.4°
2
Windvlaag: -2 m/s
5%
15:00
20°
1015.3 hPa
21%
11.0°
2
Windvlaag: -1.7 m/s
4%
16:00
20°
1015.0 hPa
23%
10.6°
2
Windvlaag: -1.3 m/s
9%
17:00
20°
1015.0 hPa
21%
10.8°
2
Windvlaag: -0.9 m/s
12%
18:00
21°
1014.8 hPa
24%
10.7°
2
Windvlaag: -0.8 m/s
3%
19:00
20°
1015.1 hPa
20%
12.7°
2
Windvlaag: -0.4 m/s
4%
20:00
20°
1015.2 hPa
18%
13.9°
2
Windvlaag: 1.7 m/s
3%
21:00
18°
1015.7 hPa
14%
14.3°
1
Windvlaag: 2.2 m/s
3%
22:00
17°
1016.3 hPa
14%
14.5°
1
Windvlaag: 1.8 m/s
4%
23:00
17°
1016.1 hPa
21%
12.4°
3
Windvlaag: 2.2 m/s
25%
 06:03     20:52    Daglengte: 14:49 Dinsdag 03 Aug
00:00
16°
1016.2 hPa
21%
12.3°
3
Windvlaag: 2.3 m/s
48%
01:00
16°
1016.2 hPa
21%
12.1°
3
Windvlaag: 1.8 m/s
43%
02:00
14°
1015.9 hPa
21%
10.7°
3
Windvlaag: 1.8 m/s
30%
03:00
14°
1015.5 hPa
21%
9.7°
2
Windvlaag: 1.5 m/s
24%
04:00
14°
1015.2 hPa
21%
9.0°
2
Windvlaag: 0.9 m/s
21%
05:00
13°
1015.1 hPa
21%
8.5°
2
Windvlaag: 1.2 m/s
24%
06:00
13°
1015.1 hPa
21%
8.5°
3
Windvlaag: 1.2 m/s
28%
07:00
15°
1015.1 hPa 10.1 mm
21%
8.3°
2
Windvlaag: 1.1 m/s
46%
08:00
16°
1015.2 hPa 10.1 mm
21%
10.2°
1
Windvlaag: 1.2 m/s
37%
09:00
17°
1015.1 hPa
21%
11.4°
0
Windvlaag: 3.5 m/s
7%
10:00
18°
1014.9 hPa
21%
11.7°
1
Windvlaag: 2.7 m/s
32%
11:00
19°
1014.5 hPa
21%
11.0°
1
Windvlaag: 3 m/s
40%
12:00
20°
1013.9 hPa
22%
10.6°
1
Windvlaag: 4.7 m/s
56%
13:00
20°
1013.4 hPa
38%
10.1°
2
Windvlaag: 5.8 m/s
71%
14:00
20°
1013.0 hPa
89%
11.1°
1
Windvlaag: 5.1 m/s
54%
15:00
21°
1012.6 hPa 10.1 mm
92%
12.0°
2
Windvlaag: 5.8 m/s
59% warningclass
16:00
21°
1012.3 hPa
42%
16.6°
2
Windvlaag: 7 m/s
59%
17:00
21°
1012.2 hPa
88%
15.6°
2
Windvlaag: 5.9 m/s
56%
18:00
20°
1012.0 hPa
93%
16.7°
1
Windvlaag: 6.6 m/s
56%
19:00
20°
1012.4 hPa 10.6 mm
98%
16.0°
2
Windvlaag: 6.7 m/s
66%
20:00
18°
1013.4 hPa 10.8 mm
100%
14.6°
2
Windvlaag: 8 m/s
95%
21:00
17°
1014.4 hPa 12.2 mm
100%
13.2°
1
Windvlaag: 7.8 m/s
98% warningclass
22:00
16°
1015.0 hPa 11.6 mm
100%
12.9°
2
Windvlaag: 8 m/s
98% warningclass
23:00
16°
1015.0 hPa 11.0 mm
93%
12.7°
2
Windvlaag: 7.3 m/s
95%
 06:05     20:50    Daglengte: 14:45 Woensdag 04 Aug
00:00
15°
1015.1 hPa
75%
12.6°
2
Windvlaag: 6.6 m/s
39%
Temp/Neerslag /Baro Onweer/Dauwpunt
    Temp Baro Neerslag Dauwpunt Wind Bewolking  
 06:01     20:54    Daglengte: 14:53 Vandaag
02:00
16°
1009.2 hPa 8.2 mm 14.3°
4
85%
05:00
16°
1009.9 hPa 12.9 mm 13.7°
2
86%
08:00
16°
1011.5 hPa 12.0 mm 13.7°
3
86%
11:00
16°
1012.8 hPa 13.5 mm 14.2°
2
73%
14:00
17°
1012.4 hPa 9.4 mm 13.8°
1
42%
17:00
18°
1012.1 hPa   12.1°
2
64%
20:00
18°
1013.2 hPa 8.7 mm 11.2°
1
84%
23:00
16°
1014.6 hPa 4.6 mm 12.3°
1
20%
 06:02     20:53    Daglengte: 14:51 Morgen
02:00
15°
1014.7 hPa   13.5°
1
39%
05:00
14°
1014.7 hPa   13.2°
2
16%
08:00
16°
1015.9 hPa   13.9°
1
20%
11:00
17°
1016.3 hPa   14.1°
2
36%
14:00
19°
1015.5 hPa   11.4°
2
5%
17:00
20°
1015.0 hPa   10.8°
2
12%
20:00
20°
1015.2 hPa   13.9°
2
3%
23:00
17°
1016.1 hPa   12.4°
3
25%
 06:03     20:52    Daglengte: 14:49 Dinsdag 03 Aug
02:00
14°
1015.9 hPa   10.7°
3
30%
05:00
13°
1015.1 hPa   8.5°
2
24%
08:00
16°
1015.2 hPa 20.2 mm 10.2°
1
37%
11:00
19°
1014.5 hPa   11.0°
1
40%
14:00
20°
1013.0 hPa   11.1°
1
54%
17:00
21°
1012.2 hPa 10.1 mm 15.6°
2
56%
20:00
18°
1013.4 hPa 21.4 mm 14.6°
2
95%
23:00
16°
1015.0 hPa 34.8 mm 12.7°
2
95%
 06:05     20:50    Daglengte: 14:45 Woensdag 04 Aug
02:00
15°
1014.8 hPa   12.6°
2
34%
05:00
13°
1013.4 hPa 55.0 mm 11.1°
1
1%
08:00
14°
1014.0 hPa 55.0 mm 12.7°
1
1%
11:00
15°
1014.8 hPa 55.8 mm 14.0°
1
1%
14:00
15°
1014.6 hPa 58.4 mm 14.4°
1
1%
17:00
15°
1016.1 hPa 59.7 mm 14.5°
1
1%
20:00
15°
1016.7 hPa 61.7 mm 13.6°
1
1%
23:00
14°
1018.0 hPa 64.2 mm 12.6°
2
1%
 06:06     20:49    Daglengte: 14:43 Donderdag 05 Aug
02:00
13°
1017.9 hPa 64.6 mm 11.6°
1
1%
05:00
11°
1017.4 hPa 64.7 mm 10.1°
1
1%
08:00
13°
1016.6 hPa 64.7 mm 11.7°
1
1%
11:00
18°
1014.7 hPa 64.7 mm 10.5°
2
0%
14:00
19°
1013.3 hPa 64.8 mm 11.2°
2
0%
17:00
19°
1011.9 hPa 64.8 mm 11.4°
2
1%
20:00
17°
1011.4 hPa 64.8 mm 12.5°
1
1%
23:00
14°
1012.4 hPa 65.7 mm 12.7°
1
1%
 06:07     20:47    Daglengte: 14:40 Vrijdag 06 Aug
02:00
14°
1011.3 hPa 66.0 mm 12.3°
1
1%
05:00
14°
1011.3 hPa 67.7 mm 12.8°
2
1%
08:00
14°
1011.5 hPa 68.9 mm 13.2°
2
1%
11:00
16°
1011.9 hPa 69.5 mm 12.9°
3
1%
14:00
18°
1011.6 hPa 70.6 mm 14.0°
5
1%
17:00
19°
1011.9 hPa 71.7 mm 13.6°
4
1%
20:00
16°
1013.1 hPa 72.2 mm 12.9°
2
1%
23:00
13°
1015.1 hPa 72.3 mm 10.7°
1
0%
 06:09     20:46    Daglengte: 14:37 Zaterdag 07 Aug
02:00
11°
1015.6 hPa 72.3 mm 10.0°
2
0%
05:00
11°
1015.1 hPa 72.3 mm 9.5°
2
0%
08:00
14°
1014.6 hPa 72.3 mm 10.9°
1
0%
11:00
20°
1013.0 hPa 72.3 mm 11.1°
1
0%
14:00
23°
1011.5 hPa 72.3 mm 12.4°
2
0%
17:00
23°
1011.4 hPa 72.3 mm 13.5°
2
0%
20:00
19°
1011.9 hPa 72.3 mm 15.4°
0
0%
23:00
17°
1013.4 hPa   14.4°
2
0%
 06:10     20:44    Daglengte: 14:34 Zondag 08 Aug
02:00
16°
1013.6 hPa 144.6 mm 13.4°
2
0%
08:00
19°
1012.9 hPa 144.6 mm 13.9°
2
0%
14:00
25°
1015.5 hPa 144.6 mm 16.5°
3
0%
20:00
19°
1018.7 hPa 145.3 mm 18.1°
2
0%
 06:11     20:42    Daglengte: 14:31 Maandag 09 Aug
02:00
16°
1022.8 hPa 153.5 mm 14.6°
2
1%
08:00
15°
1024.1 hPa 159.0 mm 13.8°
2
1%
14:00
21°
1024.1 hPa 161.1 mm 12.5°
2
1%
20:00
18°
1024.3 hPa 161.6 mm 12.8°
1
0%
 06:13     20:41    Daglengte: 14:28 Dinsdag 10 Aug
02:00
13°
1027.0 hPa 161.6 mm 11.5°
1
1%
08:00
14°
1026.6 hPa 161.6 mm 11.0°
1
0%
14:00
22°
1023.8 hPa 161.6 mm 11.7°
2
0%
20:00
19°
1020.9 hPa 1.2 mm 16.3°
1
50%
 06:14     20:39    Daglengte: 14:25 Woensdag 11 Aug
02:00
15°
1021.9 hPa 1.3 mm 13.4°
1
42%
08:00
16°
1021.2 hPa   14.1°
1
47%
14:00
23°
1019.1 hPa 1.1 mm 15.3°
2
44%
20:00
19°
1019.7 hPa 1.6 mm 16.2°
1
46%
 06:15     20:37    Daglengte: 14:22 Donderdag 12 Aug
02:00
15°
1020.9 hPa 1.6 mm 13.6°
1
50%
08:00
16°
1020.5 hPa 0.7 mm 13.9°
0
49%
14:00
23°
1019.0 hPa 0.9 mm 15.7°
2
47%
20:00
19°
1019.6 hPa 1.9 mm 16.6°
1
51%
 06:16     20:36    Daglengte: 14:20 Vrijdag 13 Aug
02:00
15°
1020.9 hPa 1.8 mm 13.8°
1
43%
08:00
16°
1020.9 hPa 0.8 mm 14.4°
1
37%
14:00
23°
1019.4 hPa 1.8 mm 15.8°
2
46%
20:00
19°
1019.8 hPa 1.4 mm 17.0°
1
47%
 06:18     20:34    Daglengte: 14:16 Zaterdag 14 Aug
02:00
15°
1021.2 hPa 0.6 mm 14.0°
1
45%
08:00
16°
1020.7 hPa 0.5 mm 14.6°
1
56%
14:00
24°
1018.6 hPa 0.5 mm 15.8°
2
50%
20:00
19°
1018.9 hPa   16.6°
1
40%
 06:19     20:32    Daglengte: 14:13 Zondag 15 Aug
02:00
15°
1020.0 hPa 0.5 mm 13.9°
1
41%
08:00
16°
1019.4 hPa 0.5 mm 14.2°
1
40%
14:00
24°
1017.5 hPa 0.9 mm 15.4°
2
43%
20:00
19°
1018.0 hPa   16.3°
1
39%
  CAPE Lifted Index Hail Supercell Tornado SRH 3km CL BTM PRES CL TOP PRES Swiss DWD icon SMHI TS
 06:01     20:54    Daglengte: 14:53 Vandaag
01:00 1 J/kg 0.7 K 0 % 0 % 0 % 0 m²/s² 0 0 0.97 61
02:00 0 J/kg 1.5 K 0 % 0 % 0 % 0 m²/s² 0 0 2.04 61
03:00 2 J/kg 0.6 K 0 % 0 % 0 % 0 m²/s² 0 0 0.78 63
04:00 4 J/kg 0.5 K 0 % 0 % 0 % 0 m²/s² 0 0 0.77 63
05:00 32 J/kg 1.0 K 0 % 0 % 0 % 0 m²/s² 0 0 1 61
06:00 17 J/kg -0.4 K 0 % 0 % 0 % 0 m²/s² 0 0 -0.04 63
07:00 4 J/kg 0.3 K 0 % 0 % 0 % 0 m²/s² 0 0 0.57 63
08:00 2 J/kg 0.8 K 0 % 0 % 0 % 0 m²/s² 0 0 0.8 63
09:00 55 J/kg 2.6 K 0 % 0 % 0 % 0 m²/s² 0 0 2.6 63
10:00 89 J/kg 2.3 K 0 % 0 % 0 % 0 m²/s² 0 0 2.39 61
11:00 104 J/kg 2.1 K 0 % 0 % 0 % 0 m²/s² 0 0 2.22 61
12:00 102 J/kg 1.4 K 0 % 0 % 0 % 0 m²/s² 0 0 1.52 63
13:00 105 J/kg 1.0 K 0 % 0 % 0 % 0 m²/s² 0 0 1.09 61
14:00 101 J/kg 0.4 K 0 % 0 % 0 % 0 m²/s² 0 0 0.58 61
15:00 245 J/kg -0.7 K 0 % 0 % 0 % 0 m²/s² 0 0 -0.52 3
16:00 313 J/kg -1.0 K 0 % 0 % 0 % 0 m²/s² 0 0 -0.67 3
17:00 429 J/kg -1.2 K 0 % 0 % 0 % 0 m²/s² 0 0 -1.17 3
18:00 411 J/kg -1.4 K 0 % 0 % 0 % 0 m²/s² 0 0 -1.16 3
19:00 358 J/kg -1.2 K 0 % 0 % 0 % 0 m²/s² 0 0 -0.45 61
20:00 366 J/kg -1.4 K 0 % 0 % 0 % 0 m²/s² 0 0 -0.32 61
21:00 313 J/kg -1.7 K 0 % 0 % 0 % 0 m²/s² 0 0 -1.67 61
22:00 357 J/kg -1.5 K 0 % 0 % 0 % 0 m²/s² 0 0 -1.02 2
23:00 287 J/kg -1.8 K 0 % 0 % 0 % 0 m²/s² 0 0 -0.24 2
 06:02     20:53    Daglengte: 14:51 Morgen
00:00 324 J/kg -1.8 K 0 % 0 % 0 % 0 m²/s² 0 0 -0.24 2
01:00 315 J/kg -1.5 K 0 % 0 % 0 % 0 m²/s² 0 0 0.15 3
02:00 360 J/kg -1.6 K 0 % 0 % 0 % 0 m²/s² 0 0 -0.01 2
03:00 436 J/kg -1.8 K 0 % 0 % 0 % 0 m²/s² 0 0 -0.36 2
04:00 327 J/kg -1.4 K 0 % 0 % 0 % 0 m²/s² 0 0 0.04 1
05:00 234 J/kg -1.0 K 0 % 0 % 0 % 0 m²/s² 0 0 0.32 1
06:00 181 J/kg -0.7 K 0 % 0 % 0 % 0 m²/s² 0 0 0.47 1
07:00 165 J/kg -0.3 K 0 % 0 % 0 % 0 m²/s² 0 0 0.63 2
08:00 257 J/kg -0.7 K 0 % 0 % 0 % 0 m²/s² 0 0 0.08 2
09:00 361 J/kg -1.3 K 0 % 0 % 0 % 0 m²/s² 0 0 -0.52 2
10:00 372 J/kg -1.4 K 0 % 0 % 0 % 0 m²/s² 0 0 -0.59 2
11:00 496 J/kg -1.8 K 0 % 0 % 0 % 0 m²/s² 0 0 -1.11 3
12:00 530 J/kg -2.0 K 0 % 0 % 0 % 0 m²/s² 0 0 -1.31 2
13:00 417 J/kg -1.7 K 0 % 0 % 0 % 0 m²/s² 0 0 -0.44 2
14:00 387 J/kg -1.7 K 0 % 0 % 0 % 0 m²/s² 0 0 0.46 2
15:00 396 J/kg -1.7 K 0 % 0 % 0 % 0 m²/s² 0 0 1.21 1
16:00 339 J/kg -1.6 K 0 % 0 % 0 % 0 m²/s² 0 0 1.67 2
17:00 326 J/kg -1.5 K 0 % 0 % 0 % 0 m²/s² 0 0 1.86 1
18:00 305 J/kg -1.4 K 0 % 0 % 0 % 0 m²/s² 0 0 1.69 1
19:00 321 J/kg -1.2 K 0 % 0 % 0 % 0 m²/s² 0 0 1.89 2
20:00 521 J/kg -1.9 K 0 % 0 % 0 % 0 m²/s² 0 0 0.56 2
21:00 479 J/kg -1.9 K 0 % 0 % 0 % 0 m²/s² 0 0 0.44 1
22:00 455 J/kg -1.9 K 0 % 0 % 0 % 0 m²/s² 0 0 0.5 1
23:00 331 J/kg -1.6 K 0 % 0 % 0 % 0 m²/s² 0 0 0.32 1
 06:03     20:52    Daglengte: 14:49 Dinsdag 03 Aug
00:00 255 J/kg -1.1 K 0 % 0 % 0 % 0 m²/s² 0 0 1.03 3
01:00 218 J/kg -1.2 K 0 % 0 % 0 % 0 m²/s² 0 0 1.2 1
02:00 90 J/kg -1.1 K 0 % 0 % 0 % 0 m²/s² 0 0 1.3 0
03:00 9 J/kg -0.9 K 0 % 0 % 0 % 0 m²/s² 0 0 1.5 0
04:00 0 J/kg -0.3 K 0 % 0 % 0 % 0 m²/s² 0 0 2.25 0
05:00 0 J/kg -0.3 K 0 % 0 % 0 % 0 m²/s² 0 0 2.1 0
06:00 0 J/kg 0.3 K 0 % 0 % 0 % 0 m²/s² 0 0 2.85 0
07:00 0 J/kg 0.6 K 0 % 0 % 0 % 0 m²/s² 0 0 3.06 3
08:00 6 J/kg 0.3 K 0 % 0 % 0 % 0 m²/s² 0 0 2.43 3
09:00 70 J/kg -0.4 K 0 % 0 % 0 % 0 m²/s² 0 0 1.22 2
10:00 260 J/kg -1.5 K 0 % 0 % 0 % 0 m²/s² 0 0 -0.21 2
11:00 297 J/kg -1.9 K 0 % 0 % 0 % 0 m²/s² 0 0 -0.55 3
12:00 318 J/kg -1.8 K 0 % 0 % 0 % 0 m²/s² 0 0 -0.42 3
13:00 339 J/kg -1.6 K 0 % 0 % 0 % 0 m²/s² 0 0 -0.37 3
14:00 436 J/kg -2.1 K 0 % 0 % 0 % 0 m²/s² 0 0 -0.63 3
15:00 696 J/kg -2.8 K 0 % 0 % 0 % 0 m²/s² 0 0 -2.23 3
16:00 636 J/kg -2.7 K 0 % 0 % 0 % 0 m²/s² 0 0 -1.62 3
17:00 701 J/kg -3.0 K 0 % 0 % 0 % 0 m²/s² 0 0 -1.38 3
18:00 537 J/kg -2.5 K 0 % 0 % 0 % 0 m²/s² 0 0 -0.76 3
19:00 469 J/kg -1.6 K 0 % 0 % 0 % 0 m²/s² 0 0 0.14 3
20:00 479 J/kg -1.2 K 0 % 0 % 0 % 0 m²/s² 0 0 0.66 80
21:00 372 J/kg -0.2 K 0 % 0 % 0 % 0 m²/s² 0 0 1.15 95
22:00 285 J/kg 0.9 K 0 % 0 % 0 % 0 m²/s² 0 0 2.76 95
23:00 169 J/kg 2.0 K 0 % 0 % 0 % 0 m²/s² 0 0 5.03 80
 06:05     20:50    Daglengte: 14:45 Woensdag 04 Aug
00:00 149 J/kg 2.7 K 0 % 0 % 0 % 0 m²/s² 0 0 6.57 2
Temp Baro Wind Neerslag
  EWN Forecast EWN WRFDA DWD ICON FMI HIRLAM MET Norway GFS
 06:01     20:54    Daglengte: 14:53 Vandaag
02:00 16.4° 1009.2 hPa 3.8 m/s 8.2 mm 15.3° 1005.8 hPa 3.8 m/s 0.5 mm 16.1° 1010.2 hPa 1.8 m/s 4.0 mm 17.0° 1009.3 hPa 4.8 m/s 0.0 mm 15.9° 1009.4 hPa 1.5 m/s
05:00 15.8° 1009.9 hPa 1.8 m/s 12.9 mm 15.9° 1006.0 hPa 1.8 m/s 1.4 mm 14.5° 1009.1 hPa 2.3 m/s 10.4 mm 16.1° 1010.5 hPa 1.7 m/s 0.0 mm 15.4° 1009.1 hPa 1.6 m/s
08:00 15.6° 1011.5 hPa 2.6 m/s 12.0 mm 14.6° 1006.5 hPa 4.3 m/s 18.7 mm 13.9° 1012.0 hPa 2.9 m/s 14.3 mm 16.2° 1011.8 hPa 2.3 m/s 0.0 mm 14.5° 1011.1 hPa 0.5 m/s
11:00 15.8° 1012.8 hPa 1.5 m/s 13.5 mm 14.9° 1010.2 hPa 1.6 m/s 51.6 mm 13.8° 1013.7 hPa 1.5 m/s 6.9 mm 16.2° 1012.8 hPa 2.1 m/s 0.0 mm 14.4° 1012.0 hPa 1.4 m/s
14:00 17.0° 1012.4 hPa 1.3 m/s 9.4 mm 17.7° 1009.7 hPa 1.2 m/s 55.7 mm 14.1° 1013.8 hPa 1.3 m/s 5.4 mm 17.7° 1012.4 hPa 1.2 m/s 0.0 mm 15.2° 1012.2 hPa 2.6 m/s
17:00 18.2° 1012.1 hPa 1.5 m/s 0.0 mm 18.6° 1010.0 hPa 3.7 m/s 55.9 mm 15.6° 1013.0 hPa 0.6 m/s 0.1 mm 19.4° 1011.7 hPa 1.1 m/s 0.0 mm 14.2° 1012.8 hPa 1.1 m/s
20:00 17.5° 1013.2 hPa 1.4 m/s 8.7 mm 16.3° 1011.0 hPa 1.9 m/s 59.4 mm 14.2° 1014.3 hPa 0.7 m/s 0.8 mm 19.1° 1012.0 hPa 1.2 m/s 0.0 mm 14.0° 1014.3 hPa 1.8 m/s
23:00 15.7° 1014.6 hPa 1.5 m/s 4.6 mm 14.6° 1012.6 hPa 2.7 m/s 73.0 mm 13.0° 1015.0 hPa 1.4 m/s 0.2 mm 16.0° 1013.8 hPa 1.0 m/s 0.0 mm 13.0° 1015.4 hPa 1.1 m/s
 06:02     20:53    Daglengte: 14:51 Morgen
02:00 14.8° 1014.7 hPa 1.5 m/s 0.0 mm 15.4° 1013.0 hPa 3.4 m/s 81.2 mm 12.7° 1015.3 hPa 1.3 m/s 0.0 mm 14.7° 1014.1 hPa 1.3 m/s 0.0 mm 13.2° 1015.3 hPa 1.0 m/s
05:00 14.4° 1014.7 hPa 1.6 m/s 0.0 mm 14.6° 1013.6 hPa 3.2 m/s 83.6 mm 11.4° 1015.5 hPa 1.6 m/s 0.0 mm 14.5° 1014.2 hPa 1.5 m/s 0.0 mm 13.1° 1015.8 hPa 1.1 m/s
08:00 15.5° 1015.9 hPa 1.3 m/s 0.0 mm 15.3° 1015.1 hPa 3.9 m/s 84.6 mm 13.6° 1016.4 hPa 0.9 m/s 0.0 mm 15.7° 1015.5 hPa 0.9 m/s 0.0 mm 13.7° 1016.9 hPa 0.9 m/s
11:00 17.3° 1016.3 hPa 1.7 m/s 0.0 mm 16.8° 1015.7 hPa 2.1 m/s 87.3 mm 16.4° 1016.7 hPa 2.1 m/s 0.0 mm 18.2° 1015.8 hPa 0.3 m/s 0.0 mm 18.3° 1016.4 hPa 1.5 m/s
14:00 19.2° 1015.5 hPa 2.3 m/s 0.0 mm 20.1° 1014.5 hPa 2.8 m/s 89.2 mm 18.1° 1015.8 hPa 2.1 m/s 0.1 mm 21.0° 1015.7 hPa 2.7 m/s 0.0 mm 20.1° 1015.3 hPa 1.9 m/s
17:00 20.5° 1015.0 hPa 2.3 m/s 0.0 mm 21.4° 1013.9 hPa 2.7 m/s 89.2 mm 19.5° 1015.1 hPa 2.6 m/s 0.0 mm 21.7° 1015.2 hPa 2.5 m/s 0.0 mm 21.5° 1015.0 hPa 1.6 m/s
20:00 19.8° 1015.2 hPa 1.6 m/s 0.0 mm 19.6° 1014.2 hPa 2.1 m/s 89.2 mm 18.4° 1015.2 hPa 1.5 m/s 0.0 mm 20.0° 1016.4 hPa 2.3 m/s 0.0 mm 17.6° 1015.6 hPa 1.5 m/s
23:00 16.8° 1016.1 hPa 2.6 m/s 0.0 mm 17.3° 1015.5 hPa 3.7 m/s 89.3 mm 14.6° 1016.7 hPa 1.6 m/s 0.0 mm 13.7° 1017.9 hPa 1.6 m/s
 06:03     20:52    Daglengte: 14:49 Dinsdag 03 Aug
02:00 14.4° 1015.9 hPa 2.7 m/s 0.0 mm 14.4° 1015.2 hPa 2.8 m/s 89.8 mm 12.4° 1016.4 hPa 2.0 m/s 0.0 mm 12.4° 1017.9 hPa 2.1 m/s
05:00 13.4° 1015.1 hPa 2.3 m/s 0.0 mm 13.3° 1014.6 hPa 2.3 m/s 89.8 mm 11.6° 1016.0 hPa 2.0 m/s 0.0 mm 11.8° 1016.8 hPa 1.9 m/s
08:00 15.5° 1015.2 hPa 1.4 m/s 20.2 mm 17.0° 1014.4 hPa 1.0 m/s 89.8 mm 14.0° 1015.6 hPa 1.3 m/s 0.0 mm 14.6° 1016.4 hPa 1.3 m/s
11:00 18.8° 1014.5 hPa 0.9 m/s 0.0 mm 20.8° 1013.2 hPa 1.1 m/s 89.8 mm 18.4° 1014.8 hPa 0.9 m/s 0.0 mm 21.3° 1014.7 hPa 0.3 m/s
14:00 20.4° 1013.0 hPa 1.5 m/s 0.0 mm 22.2° 1012.0 hPa 2.4 m/s 89.8 mm 19.9° 1013.2 hPa 1.2 m/s 0.1 mm 23.8° 1012.4 hPa 2.3 m/s
17:00 20.9° 1012.2 hPa 1.6 m/s 10.1 mm 20.9° 1012.4 hPa 4.4 m/s 92.1 mm 20.9° 1012.1 hPa 0.9 m/s 0.2 mm 15.9° 1016.6 hPa 2.5 m/s
20:00 18.4° 1013.4 hPa 1.9 m/s 21.4 mm 19.4° 1012.4 hPa 2.8 m/s 94.6 mm 18.2° 1013.7 hPa 1.7 m/s 0.6 mm 15.7° 1016.1 hPa 0.7 m/s
23:00 15.9° 1015.0 hPa 1.9 m/s 34.8 mm 17.9° 1013.5 hPa 3.7 m/s 95.5 mm 15.4° 1015.3 hPa 1.5 m/s 4.4 mm 12.6° 1016.6 hPa 2.4 m/s
 06:05     20:50    Daglengte: 14:45 Woensdag 04 Aug
02:00 14.6° 1014.8 hPa 1.7 m/s 0.0 mm 16.8° 1013.2 hPa 1.8 m/s 95.8 mm 14.0° 1015.2 hPa 1.7 m/s 0.1 mm 13.3° 1015.0 hPa 1.5 m/s
05:00 12.7° 1013.4 hPa 1.1 m/s 55.0 mm 12.7° 1013.4 hPa 1.1 m/s 55.0 mm
08:00 14.5° 1014.0 hPa 0.8 m/s 55.0 mm 14.5° 1014.0 hPa 0.8 m/s 55.0 mm
11:00 14.9° 1014.8 hPa 0.7 m/s 55.8 mm 14.9° 1014.8 hPa 0.7 m/s 55.8 mm
14:00 15.2° 1014.6 hPa 1.1 m/s 58.4 mm 15.2° 1014.6 hPa 1.1 m/s 58.4 mm
17:00 15.3° 1016.1 hPa 1.5 m/s 59.7 mm 15.3° 1016.1 hPa 1.5 m/s 59.7 mm
20:00 15.1° 1016.7 hPa 0.7 m/s 61.7 mm 15.1° 1016.7 hPa 0.7 m/s 61.7 mm
23:00 13.9° 1018.0 hPa 1.5 m/s 64.2 mm 13.9° 1018.0 hPa 1.5 m/s 64.2 mm
 06:06     20:49    Daglengte: 14:43 Donderdag 05 Aug
02:00 12.8° 1017.9 hPa 1.1 m/s 64.6 mm 12.8° 1017.9 hPa 1.1 m/s 64.6 mm
05:00 11.4° 1017.4 hPa 1.0 m/s 64.7 mm 11.4° 1017.4 hPa 1.0 m/s 64.7 mm
08:00 13.2° 1016.6 hPa 1.1 m/s 64.7 mm 13.2° 1016.6 hPa 1.1 m/s 64.7 mm
11:00 18.3° 1014.7 hPa 1.9 m/s 64.7 mm 18.3° 1014.7 hPa 1.9 m/s 64.7 mm
14:00 19.4° 1013.3 hPa 2.1 m/s 64.8 mm 19.4° 1013.3 hPa 2.1 m/s 64.8 mm
17:00 19.3° 1011.9 hPa 2.1 m/s 64.8 mm 19.3° 1011.9 hPa 2.1 m/s 64.8 mm
20:00 17.1° 1011.4 hPa 1.1 m/s 64.8 mm 17.1° 1011.4 hPa 1.1 m/s 64.8 mm
23:00 14.0° 1012.4 hPa 0.9 m/s 65.7 mm 14.0° 1012.4 hPa 0.9 m/s 65.7 mm
 06:07     20:47    Daglengte: 14:40 Vrijdag 06 Aug
02:00 13.6° 1011.3 hPa 1.4 m/s 66.0 mm 13.6° 1011.3 hPa 1.4 m/s 66.0 mm
05:00 13.6° 1011.3 hPa 2.0 m/s 67.7 mm 13.6° 1011.3 hPa 2.0 m/s 67.7 mm
08:00 14.4° 1011.5 hPa 1.8 m/s 68.9 mm 14.4° 1011.5 hPa 1.8 m/s 68.9 mm
11:00 16.4° 1011.9 hPa 2.9 m/s 69.5 mm 16.4° 1011.9 hPa 2.9 m/s 69.5 mm
14:00 18.1° 1011.6 hPa 5.3 m/s 70.6 mm 18.1° 1011.6 hPa 5.3 m/s 70.6 mm
17:00 18.7° 1011.9 hPa 3.7 m/s 71.7 mm 18.7° 1011.9 hPa 3.7 m/s 71.7 mm
20:00 16.3° 1013.1 hPa 1.7 m/s 72.2 mm 16.3° 1013.1 hPa 1.7 m/s 72.2 mm
23:00 12.7° 1015.1 hPa 1.4 m/s 72.3 mm 12.7° 1015.1 hPa 1.4 m/s 72.3 mm
 06:09     20:46    Daglengte: 14:37 Zaterdag 07 Aug
02:00 11.4° 1015.6 hPa 2.2 m/s 72.3 mm 11.4° 1015.6 hPa 2.2 m/s 72.3 mm
05:00 10.9° 1015.1 hPa 2.2 m/s 72.3 mm 10.9° 1015.1 hPa 2.2 m/s 72.3 mm
08:00 14.1° 1014.6 hPa 1.3 m/s 72.3 mm 14.1° 1014.6 hPa 1.3 m/s 72.3 mm
11:00 20.4° 1013.0 hPa 1.1 m/s 72.3 mm 20.4° 1013.0 hPa 1.1 m/s 72.3 mm
14:00 22.7° 1011.5 hPa 2.0 m/s 72.3 mm 22.7° 1011.5 hPa 2.0 m/s 72.3 mm
17:00 23.2° 1011.4 hPa 1.7 m/s 72.3 mm 23.2° 1011.4 hPa 1.7 m/s 72.3 mm
20:00 19.5° 1011.9 hPa 0.3 m/s 72.3 mm 19.5° 1011.9 hPa 0.3 m/s 72.3 mm
23:00 16.6° 1013.4 hPa 1.9 m/s 72.3 mm 16.6° 1013.4 hPa 1.9 m/s 72.3 mm
 06:10     20:44    Daglengte: 14:34 Zondag 08 Aug
02:00 16.3° 1013.6 hPa 2.0 m/s 72.3 mm 16.3° 1013.6 hPa 2.0 m/s 72.3 mm
08:00 18.7° 1012.9 hPa 1.7 m/s 72.3 mm 18.7° 1012.9 hPa 1.7 m/s 72.3 mm
14:00 25.0° 1015.5 hPa 2.8 m/s 72.3 mm 25.0° 1015.5 hPa 2.8 m/s 72.3 mm
20:00 19.1° 1018.7 hPa 2.5 m/s 73.0 mm 19.1° 1018.7 hPa 2.5 m/s 73.0 mm
 06:11     20:42    Daglengte: 14:31 Maandag 09 Aug
02:00 15.8° 1022.8 hPa 1.6 m/s 77.7 mm 15.8° 1022.8 hPa 1.6 m/s 77.7 mm
08:00 14.9° 1024.1 hPa 1.6 m/s 80.3 mm 14.9° 1024.1 hPa 1.6 m/s 80.3 mm
14:00 21.0° 1024.1 hPa 2.0 m/s 80.6 mm 21.0° 1024.1 hPa 2.0 m/s 80.6 mm
20:00 18.5° 1024.3 hPa 1.4 m/s 80.8 mm 18.5° 1024.3 hPa 1.4 m/s 80.8 mm
 06:13     20:41    Daglengte: 14:28 Dinsdag 10 Aug
02:00 13.0° 1027.0 hPa 1.2 m/s 80.8 mm 13.0° 1027.0 hPa 1.2 m/s 80.8 mm
08:00 14.1° 1026.6 hPa 0.6 m/s 80.8 mm 14.1° 1026.6 hPa 0.6 m/s 80.8 mm
14:00 21.6° 1023.8 hPa 1.9 m/s 80.8 mm 21.6° 1023.8 hPa 1.9 m/s 80.8 mm
20:00 19.1° 1020.9 hPa 0.5 m/s 1.2 mm
 06:14     20:39    Daglengte: 14:25 Woensdag 11 Aug
02:00 14.7° 1021.9 hPa 1.1 m/s 1.3 mm
08:00 16.0° 1021.2 hPa 0.6 m/s 0.0 mm
14:00 23.1° 1019.1 hPa 2.0 m/s 1.1 mm
20:00 18.6° 1019.7 hPa 0.5 m/s 1.6 mm
 06:15     20:37    Daglengte: 14:22 Donderdag 12 Aug
02:00 14.6° 1020.9 hPa 1.0 m/s 1.6 mm
08:00 15.8° 1020.5 hPa 0.4 m/s 0.7 mm
14:00 23.3° 1019.0 hPa 2.0 m/s 0.9 mm
20:00 18.6° 1019.6 hPa 0.7 m/s 1.9 mm
 06:16     20:36    Daglengte: 14:20 Vrijdag 13 Aug
02:00 14.8° 1020.9 hPa 1.2 m/s 1.8 mm
08:00 16.1° 1020.9 hPa 0.7 m/s 0.8 mm
14:00 23.4° 1019.4 hPa 1.8 m/s 1.8 mm
20:00 19.2° 1019.8 hPa 0.6 m/s 1.4 mm
 06:18     20:34    Daglengte: 14:16 Zaterdag 14 Aug
02:00 15.3° 1021.2 hPa 1.2 m/s 0.6 mm
08:00 16.3° 1020.7 hPa 0.6 m/s 0.5 mm
14:00 23.9° 1018.6 hPa 2.0 m/s 0.5 mm
20:00 19.2° 1018.9 hPa 0.8 m/s 0.0 mm
 06:19     20:32    Daglengte: 14:13 Zondag 15 Aug
02:00 15.2° 1020.0 hPa 1.2 m/s 0.5 mm
08:00 16.4° 1019.4 hPa 0.7 m/s 0.5 mm
14:00 24.1° 1017.5 hPa 1.8 m/s 0.9 mm
20:00 19.1° 1018.0 hPa 0.6 m/s 0.0 mm
FMI Hirlam - 7.5 km EWN WRFDA - 12 km DWD ICON - 7 km GFS - 25 km Basiskaart






























































Updatetijd (Europe/Amsterdam) Resolutie Lengte Stap
FMI Hirlam 19:00, 01:00, 07:00, 13:00 7.5 km 49h 1h
EWN WRFDA 22:15, 04:15, 10:15, 16:15 12 km 73h 1h
DWD ICON 23:45, 05:45, 11:45, 17:45 7 km 75h 1h
GFS 20:15, 02:15, 08:15, 14:15 25 km 237h 3h
30+ mm
25-30 mm
20-25 mm
15-20 mm
10-15 mm
6-10 mm
4-6 mm
2-4 mm